Location: Unspecified
(49.3500°N, 0.0000°E)
Time: 03:22:08
(UTC+00:00)

Cosmos 304 Rocket - Visible Passes

Search period start: 04 April 2026 00:00
Search period end: 14 April 2026 00:00
Orbit: 670 x 675 km, 74.0° (Epoch: 29 March)

Date Brightness Start Highest point End Pass type
(mag) Time Alt. Az. Time Alt. Az. Time Alt. Az.
4 Apr 5.6 00:49:20 10° NNW 00:52:00 28° NNE 00:52:00 28° NNE visible
4 Apr 6.1 02:29:36 10° NW 02:30:14 13° NW 02:30:14 13° NW visible
4 Apr 6.2 23:44:27 10° N 23:47:15 17° NE 23:47:15 17° NE visible
5 Apr 5.6 01:23:28 10° NNW 01:25:29 25° NNW 01:25:29 25° NNW visible
6 Apr 5.7 00:18:01 10° N 00:20:44 27° NNE 00:20:44 27° NNE visible
6 Apr 6.0 01:58:04 10° NW 01:58:59 15° NW 01:58:59 15° NW visible
6 Apr 6.2 23:13:17 10° N 23:16:02 15° NE 23:16:02 15° NE visible
7 Apr 5.5 00:52:04 10° NNW 00:54:17 27° NNW 00:54:17 27° NNW visible
7 Apr 5.6 23:46:41 10° N 23:49:36 26° NNE 23:49:36 26° NNE visible
8 Apr 5.9 01:26:34 10° NW 01:27:50 18° NW 01:27:50 18° NW visible
8 Apr 6.2 22:42:09 10° NNE 22:44:29 13° NE 22:44:56 13° NE visible
9 Apr 5.4 00:20:40 10° NNW 00:23:09 31° NNW 00:23:09 31° NNW visible
9 Apr 5.6 23:15:22 10° N 23:18:31 25° NE 23:18:31 25° NE visible
10 Apr 5.8 00:55:03 10° NNW 00:56:46 21° NW 00:56:46 21° NW visible
10 Apr 6.2 22:11:08 10° NNE 22:12:54 12° NE 22:13:53 11° NE visible
10 Apr 5.2 23:49:16 10° NNW 23:52:07 34° N 23:52:07 34° N visible
11 Apr 6.3 01:30:09 10° NW 01:30:22 11° NW 01:30:22 11° NW visible
11 Apr 5.6 22:44:04 10° N 22:47:30 23° NE 22:47:30 23° NE visible
12 Apr 5.5 00:23:34 10° NNW 00:25:45 26° NW 00:25:45 26° NW visible
12 Apr 6.3 21:40:25 10° NNE 21:41:18 10° NE 21:42:11 10° NE visible
12 Apr 5.0 23:17:52 10° NNW 23:21:08 38° NNE 23:21:08 38° NNE visible
13 Apr 6.1 00:58:28 10° NW 00:59:23 14° NW 00:59:23 14° NW visible
13 Apr 5.6 22:12:46 10° N 22:16:20 20° NE 22:16:33 20° NE visible
